[Iaude] MPEC F112: 2024 FK3 [a=2.33,e=0.83,i=15.1,H=20.2]

mpec at cfa.harvard.edu mpec at cfa.harvard.edu
Sun Mar 31 08:52:07 EDT 2024


M.P.E.C. 2024-F112                               Issued 2024 March 31, 12:50 UT

     The Minor Planet Electronic Circulars contain information on unusual
         minor planets, routine data on comets and natural satellites,
         and occasional editorial announcements.  They are published
    on behalf of Division F of the International Astronomical Union by the
          Minor Planet Center, Smithsonian Astrophysical Observatory,
                          Cambridge, MA 02138, U.S.A.
			  
             Prepared using the Tamkin Foundation Computer Network

                              MPC at CFA.HARVARD.EDU
            URL https://www.minorplanetcenter.net/    ISSN 1523-6714

                                    2024 FK3                                    


Observations:
     K24F03K*1C2024 03 28.34482814 16 09.520+56 02 15.29         19.61GVEF112G96
     K24F03K 1C2024 03 28.35001514 16 05.891+56 01 54.70         19.82GVEF112G96
     K24F03K 1C2024 03 28.35519814 16 02.269+56 01 33.85         19.66GVEF112G96
     K24F03K 1C2024 03 28.36037414 15 58.622+56 01 13.22         19.77GVEF112G96
     K24F03K mC2024 03 28.39645514 15 33.480+55 58 48.07         19.95GVEF112I52
     K24F03K mC2024 03 28.39839914 15 32.008+55 58 40.30         19.96GVEF112I52
     K24F03K mC2024 03 28.40033514 15 30.596+55 58 32.05               VEF112I52
     K24F03K mC2024 03 28.40225414 15 29.322+55 58 24.67         19.70GVEF112I52
     K24F03K mC2024 03 28.48825514 14 29.623+55 52 33.92         19.57GVEF112I52
     K24F03K mC2024 03 28.49158914 14 27.384+55 52 19.92         20.18GVEF112I52
     K24F03K mC2024 03 28.49494514 14 25.048+55 52 06.10         21.12GVEF112I52
     K24F03K mC2024 03 28.49834814 14 22.722+55 51 52.06         20.68GVEF112I52
     K24F03K KB2024 03 28.91641 14 09 49.57 +55 23 36.9                XEF112M45
     K24F03K KB2024 03 28.92106 14 09 46.52 +55 23 18.1                XEF112M45
     K24F03K KC2024 03 29.00416414 08 53.102+55 17 39.26         20.1 GVEF112J95
     K24F03K KC2024 03 29.00728414 08 51.096+55 17 26.88         19.7 GVEF112J95
     K24F03K KC2024 03 29.01038914 08 49.013+55 17 13.96         19.9 GVEF112J95
     K24F03K KC2024 03 29.24405314 06 22.05 +55 01 30.1          19.9 GVEF112H21
     K24F03K KC2024 03 29.24685214 06 20.27 +55 01 19.1          19.9 GVEF112H21
     K24F03K KC2024 03 29.24965014 06 18.52 +55 01 07.5          20.1 GVEF112H21
     K24F03K KC2024 03 29.25207314 06 16.97 +55 00 57.8          19.9 GVEF112H21
     K24F03K  C2024 03 29.46592514 04 05.479+54 46 36.57         19.77GVEF112F52
     K24F03K KB2024 03 29.66327 14 02 07.58 +54 33 05.8          19.6 GVEF112P13
     K24F03K KB2024 03 29.67297 14 02 01.55 +54 32 26.1          19.6 GVEF112P13
     K24F03K KB2024 03 29.69479 14 01 48.38 +54 30 58.5          20.3 GVEF112P13
     K24F03K KC2024 03 29.98066913 59 02.028+54 11 30.26         19.6 GVEF112J95
     K24F03K KC2024 03 29.98382813 59 00.185+54 11 17.84         19.7 GVEF112J95
     K24F03K KC2024 03 29.98700013 58 58.385+54 11 05.06         20.0 GVEF112J95
     K24F03K KC2024 03 29.99023313 58 56.489+54 10 52.36         20.0 GVEF112J95
     K24F03K  C2024 03 30.21830413 56 48.299+53 55 28.26         19.7 GVEF112H01
     K24F03K  C2024 03 30.22239413 56 45.974+53 55 12.12         19.7 GVEF112H01
     K24F03K  C2024 03 30.23346213 56 39.682+53 54 27.95         19.7 GVEF112H01
     K24F03K  C2024 03 30.24104513 56 35.377+53 53 57.67         19.8 GVEF112H01
     K24F03K  C2024 03 31.26338613 47 34.912+52 45 04.71         20.1 GVEF112H01
     K24F03K  C2024 03 31.26753913 47 32.778+52 44 48.10         19.9 GVEF112H01
     K24F03K  C2024 03 31.27212613 47 30.453+52 44 30.12         19.9 GVEF112H01
     K24F03K  C2024 03 31.27729013 47 27.793+52 44 09.37         20.0 GVEF112H01

Observer details:
F52 Pan-STARRS 2, Haleakala.  Observers J. Herman, T. Lowe, P. Minguez, A.
    Schultz, I. Smith.  Measurers K. Chambers, T. de Boer, J. Fairlamb, H.
    Gao, M. Huber, C.-C. Lin, E. Magnier, Y. Ramanjooloo, R. Wainscoat, R.
    Weryk.  1.8-m Ritchey-Chretien + CCD.
G96 Mt. Lemmon Survey.  Observer V. F. Carvajal.  Measurers T. Beuden, V. F.
    Carvajal, D. Fay, J. B. Fazekas, D. C. Fuls, A. R. Gibbs, A. D. Grauer, H.
    Groeller, J. K. Hogan, R. A. Kowalski, S. M. Larson, G. J. Leonard, D.
    Rankin, R. L. Seaman, F. C. Shelly, K. W. Wierzchos.  1.5-m reflector +
    10K CCD.
H01 Magdalena Ridge Observatory, Socorro.  Observers W. H. Ryan, E. V. Ryan.
    Measurer W. H. Ryan.  2.4-m f/8.9 Ritchey-Chretien + CCD.
H21 Astronomical Research Observatory, Westfield.  Observer R. Holmes.
    Measurers T. Linder, R. Holmes, L. Horn.  0.76-m f/3.0 astrograph + CCD.
I52 Steward Observatory, Mt. Lemmon Station.  Observer T. Beuden.  Measurers
    T. Beuden, V. F. Carvajal, D. Fay, J. B. Fazekas, D. C. Fuls, A. R. Gibbs,
    A. D. Grauer, H. Groeller, J. K. Hogan, R. A. Kowalski, S. M. Larson, G.
    J. Leonard, D. Rankin, R. L. Seaman, F. C. Shelly, K. W. Wierzchos.  1.0-m
    prime focus + CCD.
J95 Great Shefford.  Observer P. Birtwhistle.  0.41-m f/6.3 Schmidt-Cassegrain
    + CCD.
M45 Starhopper Observatory, Sfantu Gheorghe.  Observer F. Ursache.  0.41-m
    f/7.5 reflector + CMO.
P13 Baihuashan Observatory, Beijing.  Observers Z. Wang, B. Liu.  Measurer Z.
    Wang.  0.28-m f/2.2 reflector + CMO.

Orbital elements:
2024 FK3                                                 Earth MOID = 0.1862 AU
Epoch 2024 Mar. 31.0 TT = JDT 2460400.5                 Veres                   
M  16.35866              (2000.0)            P               Q                  
n   0.27675256     Peri.  334.79364     +0.36639606     -0.89357372             
a   2.3320702      Node    92.81132     +0.89162107     +0.25748376             
e   0.8293555      Incl.   15.05204     +0.26601839     +0.36773375             
P   3.56           H   20.21          G   0.15           U   9                  
Residuals in seconds of arc
240328 G96  0.0   0.2-    240328 M45  0.2-  0.2-    240329 J95  0.0   0.0
240328 G96  0.1+  0.0     240329 J95  0.3+  0.0     240329 J95  0.4+  0.0
240328 G96  0.3+  0.1-    240329 J95  0.5+  0.2+    240329 J95  0.3+  0.3+
240328 G96  0.1+  0.1+    240329 J95  0.1-  0.2-    240330 H01  0.1+  0.1-
240328 I52  1.1+  0.2+    240329 H21  0.3-  0.1+    240330 H01  0.1+  0.1+
240328 I52  0.1+  0.3+    240329 H21  0.3-  0.3+    240330 H01  0.1+  0.0
240328 I52  0.4-  0.1-    240329 H21  0.1-  0.0     240330 H01  0.1+  0.0
240328 I52  0.2+  0.3+    240329 H21  0.2-  0.1+    240331 H01  0.0   0.1-
240328 I52  0.2-  0.1+    240329 F52  0.2+  0.1+    240331 H01  0.1-  0.2-
240328 I52  0.2+  0.2-    240329 P13  1.1+  0.4+    240331 H01  0.1+  0.1+
240328 I52  0.0   0.2-    240329 P13  0.3-  0.3-    240331 H01  0.1-  0.1-
240328 I52  0.1+  0.3-    240329 P13  0.0   0.1+
240328 M45  0.2-  0.0     240329 J95  0.0   0.3-

Ephemeris:
2024 FK3                 a,e,i = 2.33, 0.83, 15                  q = 0.3980
Date    TT    R. A. (2000) Decl.     Delta      r    Elong.  Phase     V
2024 03 01    21 51 18.1 +26 31 58   0.3085  0.7665    36.8   129.2    22.7
...
2024 03 16    18 29 14.3 +60 14 47   0.2633  1.0107    85.9    79.0    20.1
...
2024 03 24    15 19 56.6 +60 29 10   0.3105  1.1340   108.4    56.5    20.0
...
2024 03 30    13 58 50.5 +54 10 16   0.3687  1.2230   119.5    45.3    20.2
2024 03 31    13 49 47.8 +53 02 44   0.3798  1.2376   120.9    43.9    20.3
2024 04 01    13 41 39.8 +51 55 53   0.3913  1.2521   122.1    42.5    20.3
...
2024 04 07    13 06 49.7 +45 42 51   0.4667  1.3373   127.5    36.4    20.7
...
2024 04 15    12 42 06.1 +38 55 10   0.5814  1.4467   129.9    32.1    21.2
...
2024 04 30    12 24 02.9 +29 44 00   0.8295  1.6399   126.2    29.7    22.2

M. P. C. Staff               (C) Copyright 2024 MPC           M.P.E.C. 2024-F112





More information about the Iaude mailing list